• In Belarus
  • List of Countries
  • For 7 days
  • Water Temperature
  • Satellite Maps
  • Weather Map
  • Weather Widgets
  • user-avatar
    Login

    Hourly Weather Berat

    Today, 16 December, Sunday

    Time Temperature Precipitation Wind Pressure Humidity
    00:00 +9°C° 1.8 mm 3 mps 742 mmHg 94%
    01:00 +9°C° 0 mm 3 mps 742 mmHg 95%
    02:00 +9°C° 0.6 mm 3 mps 742 mmHg 95%
    03:00 +9°C° 0.6 mm 3 mps 742 mmHg 95%
    04:00 +9°C° 0.6 mm 3 mps 742 mmHg 94%
    05:00 +8°C° 0.1 mm 3 mps 742 mmHg 94%
    06:00 +8°C° 0.1 mm 3 mps 742 mmHg 93%
    07:00 +8°C° 0.1 mm 3 mps 742 mmHg 92%
    08:00 +8°C° 0 mm 3 mps 743 mmHg 88%
    09:00 +7°C° 0 mm 4 mps 743 mmHg 84%
    10:00 +8°C° 0 mm 4 mps 743 mmHg 80%
    11:00 +8°C° 0 mm 4 mps 744 mmHg 75%
    12:00 +8°C° 0 mm 4 mps 744 mmHg 71%
    13:00 +8°C° 0 mm 4 mps 744 mmHg 67%
    14:00 +9°C° 0 mm 3 mps 744 mmHg 70%
    15:00 +8°C° 0 mm 3 mps 744 mmHg 73%
    16:00 +7°C° 0 mm 3 mps 745 mmHg 76%
    17:00 +7°C° 0 mm 2 mps 745 mmHg 79%
    18:00 +6°C° 0 mm 2 mps 745 mmHg 82%
    19:00 +5°C° 0 mm 2 mps 746 mmHg 85%
    20:00 +5°C° 0 mm 2 mps 746 mmHg 85%
    21:00 +5°C° 0 mm 2 mps 746 mmHg 84%
    22:00 +6°C° 0 mm 1 mps 746 mmHg 84%
    23:00 +6°C° 0 mm 1 mps 746 mmHg 81%

    Tomorrow, 17 December, Monday

    Time Temperature Precipitation Wind Pressure Humidity
    00:00 +6°C° 0 mm 1 mps 746 mmHg 79%
    01:00 +6°C° 0 mm 1 mps 746 mmHg 77%
    02:00 +6°C° 0 mm 1 mps 746 mmHg 76%
    03:00 +6°C° 0 mm 1 mps 746 mmHg 74%
    04:00 +6°C° 0 mm 1 mps 745 mmHg 72%
    05:00 +7°C° 0 mm 1 mps 745 mmHg 70%
    06:00 +6°C° 0 mm 2 mps 745 mmHg 67%
    07:00 +7°C° 0 mm 2 mps 745 mmHg 65%
    08:00 +7°C° 0.1 mm 2 mps 745 mmHg 64%
    09:00 +8°C° 0.1 mm 2 mps 745 mmHg 63%
    10:00 +8°C° 0.1 mm 2 mps 745 mmHg 62%
    11:00 +8°C° 0.3 mm 2 mps 744 mmHg 64%
    12:00 +8°C° 0.3 mm 3 mps 743 mmHg 66%
    13:00 +8°C° 0.3 mm 3 mps 743 mmHg 68%
    14:00 +7°C° 0.7 mm 4 mps 742 mmHg 72%
    15:00 +7°C° 0.7 mm 4 mps 742 mmHg 75%
    16:00 +6°C° 0.7 mm 4 mps 741 mmHg 79%
    17:00 +6°C° 3 mm 4 mps 741 mmHg 82%
    18:00 +7°C° 3 mm 3 mps 741 mmHg 86%
    19:00 +7°C° 3 mm 3 mps 741 mmHg 89%
    20:00 +7°C° 1.9 mm 3 mps 741 mmHg 89%
    21:00 +7°C° 1.9 mm 3 mps 742 mmHg 89%
    22:00 +5°C° 1.9 mm 3 mps 742 mmHg 89%
    23:00 +5°C° 0.3 mm 3 mps 742 mmHg 88%

    Day after tomorrow, 18 December, Tuesday

    Time Temperature Precipitation Wind Pressure Humidity
    00:00 +5°C° 0.3 mm 3 mps 742 mmHg 87%
    01:00 +5°C° 0.3 mm 3 mps 742 mmHg 86%
    02:00 +5°C° 0.3 mm 3 mps 742 mmHg 86%
    03:00 +5°C° 0.3 mm 3 mps 743 mmHg 85%
    04:00 +4°C° 0.3 mm 3 mps 743 mmHg 85%
    05:00 +4°C° 0.1 mm 3 mps 743 mmHg 85%
    06:00 +4°C° 0.1 mm 4 mps 744 mmHg 84%
    07:00 +4°C° 0.1 mm 4 mps 744 mmHg 84%
    08:00 +4°C° 0 mm 4 mps 745 mmHg 82%
    09:00 +5°C° 0 mm 4 mps 745 mmHg 80%
    10:00 +6°C° 0 mm 4 mps 745 mmHg 78%
    11:00 +6°C° 0 mm 4 mps 746 mmHg 77%
    12:00 +7°C° 0 mm 4 mps 746 mmHg 77%
    13:00 +7°C° 0 mm 4 mps 746 mmHg 77%
    14:00 +7°C° 0 mm 4 mps 746 mmHg 78%
    15:00 +6°C° 0 mm 4 mps 746 mmHg 80%
    16:00 +5°C° 0 mm 3 mps 747 mmHg 81%
    17:00 +5°C° 0 mm 3 mps 747 mmHg 81%
    18:00 +4°C° 0 mm 3 mps 748 mmHg 82%
    19:00 +3°C° 0 mm 3 mps 748 mmHg 82%
    20:00 +3°C° 0 mm 3 mps 749 mmHg 82%
    21:00 +3°C° 0 mm 3 mps 749 mmHg 81%
    22:00 +3°C° 0 mm 3 mps 749 mmHg 81%
    23:00 +3°C° 0 mm 3 mps 749 mmHg 80%

    19 December, Wednesday

    Time Temperature Precipitation Wind Pressure Humidity
    00:00 +4°C° 0 mm 2 mps 749 mmHg 80%
    01:00 +4°C° 0 mm 2 mps 749 mmHg 79%
    02:00 +4°C° 0 mm 2 mps 750 mmHg 79%
    03:00 +4°C° 0 mm 2 mps 750 mmHg 78%
    04:00 +4°C° 0 mm 2 mps 750 mmHg 77%
    05:00 +4°C° 0 mm 2 mps 750 mmHg 77%
    06:00 +4°C° 0 mm 2 mps 750 mmHg 76%
    07:00 +4°C° 0 mm 2 mps 750 mmHg 75%
    08:00 +7°C° 0 mm 1 mps 750 mmHg 74%
    09:00 +8°C° 0 mm 1 mps 751 mmHg 73%
    10:00 +10°C° 0 mm 1 mps 751 mmHg 72%
    11:00 +11°C° 0 mm 1 mps 751 mmHg 71%
    12:00 +11°C° 0 mm 1 mps 750 mmHg 69%
    13:00 +12°C° 0 mm 1 mps 750 mmHg 68%
    14:00 +11°C° 0 mm 1 mps 750 mmHg 70%
    15:00 +10°C° 0 mm 1 mps 750 mmHg 72%
    16:00 +9°C° 0 mm 1 mps 750 mmHg 74%
    17:00 +8°C° 0 mm 1 mps 750 mmHg 73%
    18:00 +7°C° 0 mm 1 mps 750 mmHg 73%
    19:00 +6°C° 0 mm 1 mps 751 mmHg 72%
    20:00 +6°C° 0 mm 1 mps 751 mmHg 70%
    21:00 +6°C° 0 mm 1 mps 751 mmHg 69%
    22:00 +6°C° 0 mm 1 mps 751 mmHg 67%
    23:00 +6°C° 0 mm 1 mps 751 mmHg 66%

    20 December, Thursday

    Time Temperature Precipitation Wind Pressure Humidity
    00:00 +6°C° 0 mm 1 mps 751 mmHg 65%
    01:00 +6°C° 0 mm 1 mps 751 mmHg 64%
    02:00 +5°C° 0 mm 2 mps 751 mmHg 64%
    03:00 +5°C° 0 mm 2 mps 751 mmHg 63%
    04:00 +5°C° 0 mm 2 mps 751 mmHg 63%
    05:00 +5°C° 0 mm 2 mps 751 mmHg 63%
    06:00 +5°C° 0 mm 2 mps 751 mmHg 63%
    07:00 +4°C° 0 mm 3 mps 751 mmHg 63%
    08:00 +5°C° 0 mm 3 mps 751 mmHg 63%
    09:00 +8°C° 0 mm 3 mps 751 mmHg 64%
    10:00 +9°C° 0 mm 3 mps 751 mmHg 65%
    11:00 +10°C° 0 mm 3 mps 751 mmHg 66%
    12:00 +11°C° 0 mm 3 mps 750 mmHg 66%
    13:00 +11°C° 0 mm 3 mps 750 mmHg 67%
    14:00 +10°C° 0 mm 4 mps 750 mmHg 70%
    15:00 +10°C° 0 mm 4 mps 750 mmHg 73%
    16:00 +8°C° 0 mm 4 mps 750 mmHg 76%
    17:00 +8°C° 0.1 mm 4 mps 750 mmHg 78%
    18:00 +7°C° 0.1 mm 4 mps 750 mmHg 79%
    19:00 +7°C° 0.1 mm 4 mps 750 mmHg 81%
    20:00 +7°C° 0.4 mm 4 mps 750 mmHg 82%
    21:00 +7°C° 0.4 mm 4 mps 750 mmHg 83%
    22:00 +7°C° 0.4 mm 4 mps 750 mmHg 83%
    23:00 +7°C° 1.1 mm 4 mps 749 mmHg 85%

    21 December, Friday

    Time Temperature Precipitation Wind Pressure Humidity
    00:00 +7°C° 1.1 mm 4 mps 749 mmHg 86%
    01:00 +8°C° 1.1 mm 3 mps 749 mmHg 87%
    02:00 +8°C° 1.3 mm 3 mps 748 mmHg 88%
    03:00 +8°C° 1.3 mm 3 mps 748 mmHg 89%
    04:00 +8°C° 1.3 mm 2 mps 748 mmHg 90%
    05:00 +8°C° 0.4 mm 2 mps 748 mmHg 90%
    06:00 +8°C° 0.4 mm 2 mps 748 mmHg 89%
    07:00 +7°C° 0.4 mm 2 mps 748 mmHg 89%
    08:00 +8°C° 0.1 mm 2 mps 749 mmHg 86%
    09:00 +9°C° 0.1 mm 2 mps 749 mmHg 84%
    10:00 +10°C° 0.1 mm 2 mps 749 mmHg 82%
    11:00 +10°C° 0.5 mm 2 mps 749 mmHg 81%
    12:00 +12°C° 0.5 mm 2 mps 748 mmHg 81%
    13:00 +12°C° 0.5 mm 2 mps 748 mmHg 80%
    14:00 +10°C° 0.3 mm 2 mps 748 mmHg 82%
    15:00 +10°C° 0.3 mm 2 mps 749 mmHg 84%
    16:00 +9°C° 0.3 mm 2 mps 749 mmHg 86%
    17:00 +9°C° 0.1 mm 2 mps 749 mmHg 88%
    18:00 +9°C° 0.1 mm 1 mps 749 mmHg 89%
    19:00 +8°C° 0.1 mm 1 mps 749 mmHg 91%
    20:00 +8°C° 0 mm 1 mps 750 mmHg 90%
    21:00 +8°C° 0 mm 1 mps 750 mmHg 90%
    22:00 +8°C° 0 mm 1 mps 750 mmHg 89%
    23:00 +8°C° 0 mm 1 mps 750 mmHg 88%
    Show more